• Join FlightAware (Why Join?)
  • Login
  • US Flag GB Flag 
15:20 EDT


 

Airport Tracker/Info


-or-


 

Live Flight TrackerFlight Track Log ✈ EJA122 ✈ 12-Dec-2012 ✈ KMSN - KSYR

Flight Track Log - Related Links

Times and Time Zones

All times are in EST time to prevent confusion due to time zone crossing. See the EJA122 flight status page for this flight to view local times or setup timezone preferences in your user account.

Time Position Orientation Groundspeed Altitude Reporting Facility
EST Latitude Longitude Course Direction KTS MPH feet Rate Location/Type
17:25 43.1122 -89.3383 86° East 194 223 3,500  Level Chicago Center
17:27 43.1333 -89.1547 90° East  Level FlightAware Approximate
17:27 43.1219 -89.1625 90° East 256 295 9,600  Level Chicago Center
17:28 43.1219 -89.0436 90° East 309 356 12,000 2,040 Climbing Chicago Center
17:29 43.1211 -88.8869 90° East 355 409 13,900 1,680 Climbing Chicago Center
17:31 43.1211 -88.7422 90° East 379 436 15,500 1,500 Climbing Chicago Center
17:32 43.1192 -88.5914 91° East 394 453 17,000 1,140 Climbing Chicago Center
17:33 43.1183 -88.4378 90° East 404 465 17,900 1,080 Climbing Chicago Center
17:34 43.1172 -88.2489 90° East 424 488 19,300 1,200 Climbing Chicago Center
17:35 43.1264 -88.0886 85° East 424 488 20,400 1,080 Climbing Chicago Center
17:36 43.1339 -87.9269 86° East 426 490 21,600 1,140 Climbing Chicago Center
17:37 43.1414 -87.7639 86° East 429 494 22,800 1,140 Climbing Chicago Center
17:38 43.1483 -87.6006 87° East 430 495 24,000 900 Climbing Chicago Center
17:40 43.1639 -87.2525 86° East 452 520 25,700 780 Climbing Chicago Center
17:41 43.1703 -87.0750 87° East 465 535 26,500 780 Climbing Chicago Center
17:42 43.1786 -86.8606 87° East 470 541 27,400 780 Climbing Chicago Center
17:43 43.1850 -86.6761 87° East 479 551 28,200 720 Climbing Chicago Center
17:44 43.1919 -86.4900 87° East 485 558 29,000 720 Climbing Chicago Center
17:45 43.1989 -86.3017 87° East 491 565 29,800 720 Climbing Chicago Center
17:46 43.2050 -86.1119 87° East 493 567 30,600 720 Climbing Chicago Center
17:47 43.2100 -85.9192 88° East 493 567 31,300 720 Climbing Chicago Center
17:48 43.2153 -85.7292 88° East 493 567 32,100 720 Climbing Chicago Center
17:49 43.2206 -85.5406 88° East 493 567 32,900 840 Climbing Chicago Center
17:50 43.2267 -85.3144 88° East 494 568 33,900 780 Climbing Chicago Center
17:51 43.2278 -85.2253 89° East 489 563 34,200 600 Climbing Cleveland Center
17:52 43.2308 -85.0403 89° East 489 563 34,900 360 Climbing Cleveland Center
17:53 43.2339 -84.8494 89° East 495 570 35,000  Climbing Cleveland Center
17:54 43.2367 -84.6558 89° East 495 570 35,000  Level Cleveland Center
17:55 43.2372 -84.4592 90° East 500 575 35,000  Level Cleveland Center
17:56 43.2414 -84.2625 88° East 505 581 35,000  Level Cleveland Center
17:57 43.2453 -84.0689 88° East 505 581 35,000  Level Cleveland Center
17:58 43.2494 -83.8583 88° East 505 581 35,000  Level Cleveland Center
17:59 43.2508 -83.6589 89° East 511 588 35,000  Level Cleveland Center
18:00 43.2517 -83.4678 90° East 511 588 35,000  Level Cleveland Center
18:01 43.2542 -83.2742 89° East 511 588 35,000  Level Cleveland Center
18:02 43.2542 -83.0831 90° East 506 582 35,000  Level Cleveland Center
18:03 43.2561 -82.8864 89° East 506 582 35,000  Level Cleveland Center
18:04 43.2578 -82.6983 89° East 506 582 35,000  Level Cleveland Center
18:05 43.2667 -82.5333 86° East 510 587 35,000  Level Toronto Center
18:06 43.2667 -82.3333 90° East 510 587 35,000  Level Toronto Center
18:07 43.2667 -82.1333 90° East 520 598 35,000  Level Toronto Center
18:08 43.2500 -81.9500 97° East 510 587 35,000  Level Toronto Center
18:10 43.2667 -81.5500 87° East 510 587 35,000  Level Toronto Center
18:11 43.2667 -81.3667 90° East 500 575 35,000  Level Toronto Center
18:12 43.2500 -81.1667 96° East 500 575 35,000  Level Toronto Center
18:13 43.2500 -80.9833 90° East 500 575 35,000  Level Toronto Center
18:14 43.2667 -80.8000 83° East 500 575 35,000 -360 Level Toronto Center
18:15 43.2667 -80.6000 90° East 500 575 34,300 -780 Descending Toronto Center
18:16 43.2500 -80.4167 97° East 510 587 33,500 -840 Descending Toronto Center
18:17 43.2500 -80.2000 90° East 500 575 32,700 -780 Descending Toronto Center
18:18 43.2500 -80.0167 90° East 500 575 32,000 -780 Descending Toronto Center
18:19 43.2500 -79.8167 90° East 510 587 31,200 -840 Descending Toronto Center
18:21 43.2333 -79.4500 93° East 510 587 29,500 -1,020 Descending Toronto Center
18:23 43.2333 -79.0333 90° East 500 575 27,300 -840 Descending Toronto Center
18:24 43.2267 -78.8453 93° East 498 573 27,000 -180 Descending Cleveland Center
18:25 43.2214 -78.6458 92° East 503 579 27,000  Level Cleveland Center
18:26 43.2139 -78.4497 93° East 513 590 27,000  Level Cleveland Center
18:27 43.2056 -78.2478 93° East 518 596 27,000 -1,320 Level Cleveland Center
18:29 43.1931 -77.8608 92° East 512 589 23,200 -2,340 Descending Cleveland Center
18:31 43.1833 -77.5000 92° East 480 552 18,200 -2,700 Descending Toronto Center
18:32 43.1500 -77.3500 107° East 440 506 15,700 -2,640 Descending Toronto Center
18:33 43.1500 -77.1833 90° East 420 483 13,000 -2,400 Descending Toronto Center
18:34 43.1500 -77.0333 90° East 400 460 11,000 -1,020 Descending Toronto Center
18:35 43.1500 -76.8833 90° East 390 449 11,000 -60 Level Toronto Center
18:36 43.1333 -76.7333 99° East 380 437 10,900 -1,080 Descending Toronto Center
18:38 43.1478 -76.4872 85° East 305 351 7,400 -1,500 Descending Boston Center
18:39 43.1597 -76.3828 81° East 284 327 5,800 -1,680 Descending Boston Center
18:41 43.1753 -76.1672 84° East 271 312 2,400 -1,320 Descending Boston Center
18:42 43.1781 -76.0764 88° East 210 242 1,900 -360 Descending Boston Center
18:43 43.1478 -76.0489 146° Southeast 150 173 1,700 -540 Descending Boston Center
18:44 43.1164 -76.0556 189° South 121 139 900 -840 Descending Boston Center